CYGNUS NG-16

Last updated on Wed Dec 15 2021 00:02:05 GMT+0000 (Coordinated Universal Time)

1 49064U 21072A 21347.92594200 .00000090 00000+0 13678-4 0 9990 2 49064 51.6455 176.3050 0006439 49.7469 310.4076 15.35225628316420
UTC large
Height (km)
Speed (km/s)
/
Latitude / Longitude
Inclination (degrees)
Orbital Period (minutes)
Azimuth
Elevation
Range (km)
Doppler Factor

Next 0 passes for location: London (51.5072 / 0.1276)

Sorry there are no passes over London.